Satellite-Ground Cal/Val Region Overpasses Predictions

Prediction of Satellite NPP Overpassing Cal/Val Region: PacNW

Region Location: (Latitude: 10.00, Longitude: 139.50) to (Latitude: 22.70, Longitude: 165.60).

Table of predicted overpasses for the next 14.0 days since TLE Epoch: 6/11/2013
Interval Starting Time Starting Location Ending Time Ending Location
1 06/11/2013 14:29:30 ( 11.98, 165.59) 06/11/2013 14:30:03 ( 10.04, 165.14)
2 06/11/2013 16:07:58 ( 22.66, 142.77) 06/11/2013 16:11:33 ( 10.04, 139.77)
3 06/12/2013 03:17:02 ( 10.01, 150.29) 06/12/2013 03:20:38 ( 22.69, 147.27)
4 06/12/2013 15:48:55 ( 22.69, 147.54) 06/12/2013 15:52:31 ( 10.01, 144.52)
5 06/13/2013 02:58:01 ( 10.04, 155.04) 06/13/2013 03:01:36 ( 22.66, 152.04)
6 06/13/2013 15:29:54 ( 22.65, 152.29) 06/13/2013 15:33:29 ( 10.03, 149.29)
7 06/14/2013 02:38:58 ( 10.01, 159.81) 06/14/2013 02:42:34 ( 22.70, 156.79)
8 06/14/2013 15:10:51 ( 22.68, 157.06) 06/14/2013 15:14:27 ( 10.00, 154.04)
9 06/15/2013 02:19:57 ( 10.05, 164.56) 06/15/2013 02:23:32 ( 22.67, 161.56)
10 06/15/2013 14:51:50 ( 22.65, 161.81) 06/15/2013 14:55:25 ( 10.03, 158.81)
11 06/16/2013 03:42:24 ( 10.03, 143.96) 06/16/2013 03:45:59 ( 22.65, 140.95)
12 06/16/2013 14:33:55 ( 18.68, 165.60) 06/16/2013 14:36:22 ( 10.05, 163.57)
13 06/16/2013 16:14:17 ( 22.66, 141.20) 06/16/2013 16:16:16 ( 15.68, 139.51)
14 06/17/2013 03:23:22 ( 10.01, 148.72) 06/17/2013 03:26:58 ( 22.69, 145.70)
15 06/17/2013 15:55:15 ( 22.69, 145.97) 06/17/2013 15:58:51 ( 10.01, 142.95)
16 06/18/2013 03:04:21 ( 10.04, 153.47) 06/18/2013 03:07:56 ( 22.66, 150.47)
17 06/18/2013 15:36:13 ( 22.65, 150.72) 06/18/2013 15:39:48 ( 10.03, 147.72)
18 06/19/2013 02:45:18 ( 10.02, 158.24) 06/19/2013 02:48:54 ( 22.70, 155.22)
19 06/19/2013 15:17:11 ( 22.68, 155.49) 06/19/2013 15:20:46 ( 10.06, 152.48)
20 06/20/2013 02:26:17 ( 10.05, 162.99) 06/20/2013 02:29:52 ( 22.68, 159.99)
21 06/20/2013 14:58:08 ( 22.70, 160.26) 06/20/2013 15:01:44 ( 10.02, 157.24)
22 06/21/2013 02:09:51 ( 19.25, 165.59) 06/21/2013 02:10:49 ( 22.65, 164.75)
23
